{"data":{"norad_id":49728,"intl_designator":"2021-115E","name":"STARLINK-3240","alt_names":[],"object_type":"PAYLOAD","status":"ACTIVE","operator":null,"country":"US","launch_date":"2021-12-02","launch_site_code":"AFETR","launch_vehicle":null,"mission":null,"orbit_class":"UNKNOWN","rcs_meters":null,"size_class":null,"mass_kg":null,"dimensions":null,"purposes":["comms"],"wikipedia_slug":null,"has_3d_model":false,"image_url":null,"decayed_at":null,"tle_current":{"epoch":"2026-09-19T17:56:25.823904Z","epoch_age_seconds":110050,"freshness":"FRESH","line1":"1 49728U 21115E   26262.74752111 -.00000531  00000+0 -45797-5 0  9993","line2":"2 49728  53.1610 352.8952 0000970  87.1178 272.9935 15.34399390264892","mean_motion":15.3439939,"eccentricity":9.7e-5,"inclination_deg":53.161,"raan_deg":352.8952,"arg_perigee_deg":87.1178,"mean_anomaly_deg":272.9935,"bstar":-4.5797e-6,"rev_number":26489,"period_min":93.847795390482,"perigee_km":462.04149157709,"apogee_km":463.36861493542,"semimajor_km":6840.8420532563,"source":"CELESTRAK","updated_at":"2026-09-20T09:00:39.403541Z"}}}